Location: ?????????
(54.7630°N, 39.4991°E)
Time: 16:56:33
(UTC+00:00)

Cosmos 2151 - Pass Details

Date: 14 April 2026
Orbit: 557 x 574 km, 82.5° (Epoch: 16 May)

Event Time Altitude Azimuth Distance (km) Brightness Sun altitude
Rises 22:05:27 0° 349° (N) 2,801 7.5 -24.9°
Reaches altitude 10° 22:07:39 10° 351° (N) 1,898 6.5 -24.9°
Enters shadow 22:11:34 70° 40° (NE) 617 3.1 -24.7°
